PBO Station Position Time Series. Reference Frame : NAM14
Format Version,1.1.0
4-character ID,ROSS
Station name,Rossport
Begin Date, 2003-03-22
End Date, 2019-09-28
Release Date, 2019-10-08
Reference position, 48.8337294412 North Latitude, -87.5195996225 East Longitude, 149.79549 meters elevation,
Date, North (mm), East (mm), Vertical (mm), North Std. Deviation (mm), East Std. Deviation (mm),              Vertical Std. Deviation (mm), Quality,
2003-03-22,0.00, 0.00, 0.00, 2.42, 1.71, 7.77, repro,
2003-03-23,-2.18, 0.61, -4.77, 2.36, 1.69, 7.65, repro,
2003-03-25,-5.17, 1.24, -0.09, 2.49, 1.79, 8.15, repro,
2003-03-26,-2.74, 1.42, -6.14, 2.37, 1.72, 7.76, repro,
2003-03-27,-0.62, 1.88, -9.89, 2.48, 1.75, 8.02, repro,
2003-03-28,-3.21, -0.15, -8.27, 2.45, 1.76, 7.93, repro,
2003-03-29,-3.33, -2.21, -9.05, 2.69, 1.93, 8.93, repro,
2003-03-30,-4.11, -1.96, -16.36, 2.49, 1.78, 8.17, repro,
2003-03-31,-5.19, -0.53, -11.21, 2.36, 1.70, 7.59, repro,
2003-04-01,-2.76, -3.88, -4.14, 2.51, 1.79, 8.12, repro,
2003-04-02,-4.52, -6.10, -5.81, 2.40, 1.74, 7.79, repro,
2003-04-03,-3.05, -6.57, -11.58, 2.41, 1.73, 7.83, repro,
2003-04-07,-3.07, -6.29, -22.24, 2.32, 1.70, 7.63, repro,
2003-04-08,-5.37, -5.87, -13.71, 2.34, 1.70, 7.59, repro,
2003-04-09,-5.14, -7.64, -9.77, 2.41, 1.77, 7.95, repro,
2003-04-10,-3.85, -8.36, -7.16, 2.45, 1.76, 8.07, repro,
2003-04-11,-3.62, -6.36, -2.53, 2.35, 1.72, 7.67, repro,
2003-04-12,-2.19, -4.68, -3.35, 2.35, 1.73, 7.65, repro,
2003-04-13,-2.51, -3.77, -10.89, 2.26, 1.67, 7.48, repro,
2003-04-14,-3.25, -4.07, -4.97, 2.34, 1.71, 7.56, repro,
2003-04-15,-1.05, -3.43, 2.39, 2.29, 1.68, 7.49, repro,
2003-04-16,-1.35, -1.72, -11.71, 2.29, 1.68, 7.46, repro,
2003-04-17,-2.47, -1.39, -10.96, 2.38, 1.75, 7.83, repro,
2003-04-18,-4.48, -2.29, -6.51, 2.29, 1.69, 7.48, repro,
2003-04-19,-3.13, -1.54, -12.45, 2.28, 1.68, 7.45, repro,
2003-04-21,-0.35, -0.06, -4.72, 2.36, 1.74, 7.68, repro,
2003-04-22,-2.32, -1.78, -14.35, 2.44, 1.74, 7.78, repro,
2003-04-23,-2.79, 0.55, -7.64, 2.26, 1.67, 7.44, repro,
2003-04-24,-3.35, 0.05, -11.48, 2.36, 1.72, 7.64, repro,
2003-04-27,-1.61, 0.71, -8.60, 2.40, 1.77, 8.04, repro,
2003-04-28,-1.83, 0.28, -7.24, 2.33, 1.70, 7.62, repro,
2003-04-29,-2.43, -0.58, -4.72, 2.29, 1.70, 7.65, repro,
2003-05-01,-2.64, -0.92, -10.76, 2.59, 1.88, 8.55, repro,
2003-05-02,-0.61, -0.51, -9.05, 2.32, 1.72, 7.62, repro,
2003-05-03,-2.81, 0.43, -11.40, 2.37, 1.72, 7.59, repro,
2003-05-04,-2.68, 1.22, -8.87, 2.35, 1.70, 7.57, repro,
2003-05-05,-1.81, 0.14, -2.27, 2.26, 1.66, 7.38, repro,
2003-05-06,-2.89, 0.95, -1.53, 2.24, 1.64, 7.30, repro,
2003-05-07,-0.56, 0.99, -5.84, 2.30, 1.67, 7.56, repro,
2003-05-08,-1.76, -0.45, -5.93, 2.37, 1.70, 7.55, repro,
2003-05-09,-2.33, 0.67, -5.07, 2.38, 1.73, 7.68, repro,
2003-05-10,-2.24, -0.47, 0.32, 2.64, 1.95, 8.62, repro,
2003-05-11,-2.31, 0.84, -3.21, 2.29, 1.65, 7.43, repro,
2003-05-12,-0.69, 2.42, -5.59, 2.28, 1.67, 7.48, repro,
2003-05-13,-1.45, 1.19, -0.72, 2.37, 1.69, 7.54, repro,
2003-05-14,-2.45, 1.08, -3.32, 2.35, 1.68, 7.51, repro,
2003-05-15,-4.05, 1.74, -13.25, 2.31, 1.69, 7.54, repro,
2003-05-16,-2.67, 2.12, -5.07, 2.25, 1.65, 7.38, repro,
2003-05-17,-1.25, 2.29, -9.11, 2.35, 1.72, 7.71, repro,
2003-05-18,-2.29, 1.84, -10.12, 2.31, 1.70, 7.64, repro,
2003-05-19,-0.64, 1.62, -4.21, 2.26, 1.65, 7.38, repro,
2003-05-20,-3.63, 1.30, -13.73, 2.31, 1.67, 7.46, repro,
2003-05-21,-2.34, 2.31, -17.44, 2.32, 1.68, 7.53, repro,
2003-05-22,-2.36, 1.86, -10.79, 2.34, 1.69, 7.56, repro,
2003-05-23,-3.58, 1.28, -9.90, 2.28, 1.68, 7.55, repro,
2003-05-24,-1.70, 1.09, -8.35, 2.25, 1.64, 7.43, repro,
2003-05-25,-2.34, 1.78, -10.47, 2.25, 1.64, 7.35, repro,
2003-05-26,-3.27, 1.22, -12.28, 2.25, 1.65, 7.38, repro,
2003-05-27,-3.09, 1.88, -8.59, 2.36, 1.70, 7.69, repro,
2003-05-28,-3.59, 0.05, 0.76, 2.42, 1.77, 7.91, repro,
2003-05-29,-0.22, 1.49, -6.85, 2.67, 1.93, 8.70, repro,
2003-05-30,-1.37, 0.02, -0.37, 2.49, 1.80, 8.12, repro,
2003-06-01,-2.02, 1.47, -3.40, 2.25, 1.63, 7.27, repro,
2003-06-02,-2.50, 0.59, -8.35, 2.57, 1.93, 8.48, repro,
2003-06-03,-0.68, 1.64, -5.00, 2.32, 1.71, 7.61, repro,
2003-06-04,-1.44, -0.11, -0.91, 2.35, 1.71, 7.59, repro,
2003-06-05,-1.38, 1.48, 0.51, 2.29, 1.70, 7.57, repro,
2003-06-06,-2.33, 0.28, -5.50, 2.33, 1.72, 7.67, repro,
2003-06-07,-2.09, 1.01, -4.39, 2.29, 1.69, 7.57, repro,
2003-06-08,-1.91, 1.18, -1.52, 2.28, 1.70, 7.50, repro,
2003-06-09,-3.12, 1.69, 1.09, 2.27, 1.68, 7.44, repro,
2003-06-10,-3.09, 1.03, 2.13, 2.32, 1.68, 7.44, repro,
2003-06-11,-0.71, 1.17, -4.00, 2.23, 1.64, 7.32, repro,
2003-06-12,-1.59, 0.39, -7.06, 2.30, 1.69, 7.52, repro,
2003-06-13,-2.93, 1.66, 1.93, 2.46, 1.80, 7.81, repro,
2003-06-14,-1.86, 1.30, -9.59, 2.28, 1.66, 7.38, repro,
2003-06-15,-1.93, 0.71, -6.06, 2.21, 1.63, 7.28, repro,
2003-06-16,-2.25, 0.90, -10.72, 2.38, 1.73, 7.74, repro,
2003-06-17,-1.36, 0.21, -12.05, 2.58, 1.88, 8.52, repro,
2003-06-18,-1.80, 2.72, 3.70, 2.55, 1.84, 8.44, repro,
2003-06-19,-2.42, 1.89, -4.81, 2.23, 1.64, 7.29, repro,
2003-06-20,-3.01, 2.52, 2.28, 2.23, 1.63, 7.28, repro,
2003-06-21,-4.53, 2.48, -1.28, 2.32, 1.67, 7.52, repro,
2003-06-22,-4.31, 2.12, 2.57, 2.27, 1.66, 7.42, repro,
2003-06-23,-2.92, 1.04, -3.46, 2.26, 1.66, 7.46, repro,
2003-06-24,-2.76, 2.34, 2.07, 2.32, 1.69, 7.64, repro,
2003-06-25,-3.48, 2.23, 8.93, 2.28, 1.70, 7.58, repro,
2003-06-26,-2.35, 2.06, 4.62, 2.39, 1.72, 7.64, repro,
2003-06-27,-2.00, 0.96, -5.77, 2.30, 1.68, 7.63, repro,
2003-06-28,-2.25, 2.41, -12.53, 2.31, 1.66, 7.48, repro,
2003-06-29,-0.73, 0.80, -7.93, 2.33, 1.68, 7.52, repro,
2003-06-30,-3.05, 2.19, -3.52, 2.38, 1.71, 7.62, repro,
2003-07-02,-1.49, 0.41, 4.73, 2.29, 1.69, 7.55, repro,
2003-07-03,-2.31, 1.15, -3.68, 2.41, 1.73, 7.84, repro,
2003-07-04,-1.71, 1.19, 1.76, 2.39, 1.70, 7.73, repro,
2003-07-05,-2.45, 1.66, 3.98, 2.29, 1.68, 7.55, repro,
2003-07-06,-0.61, 3.43, 7.34, 2.31, 1.67, 7.48, repro,
2003-07-07,-1.60, -0.35, 13.47, 2.36, 1.72, 7.78, repro,
2003-07-08,-2.23, 3.16, 4.32, 2.29, 1.68, 7.54, repro,
2003-07-09,-3.16, 1.90, 0.81, 2.29, 1.67, 7.52, repro,
2003-07-10,-0.51, 1.24, -4.60, 2.29, 1.67, 7.53, repro,
2003-07-11,-0.87, 1.82, -7.51, 2.46, 1.77, 8.32, repro,
2003-07-12,0.47, 2.29, 1.94, 2.50, 1.86, 8.38, repro,
2003-07-13,-3.43, 2.10, 3.26, 2.29, 1.69, 7.57, repro,
2003-07-14,-1.77, 3.16, 15.57, 2.35, 1.71, 7.76, repro,
2003-07-15,-0.12, 1.74, 3.77, 2.42, 1.74, 7.88, repro,
2003-07-16,-1.17, 0.69, -6.42, 2.61, 1.88, 8.88, repro,
2003-07-17,-3.21, 3.38, 15.43, 2.44, 1.79, 8.24, repro,
2003-07-18,-2.12, 3.10, -5.71, 2.30, 1.69, 7.60, repro,
2003-07-19,-2.06, 2.11, 6.42, 2.35, 1.69, 7.59, repro,
2003-07-20,-2.04, -0.45, -5.59, 2.34, 1.68, 7.68, repro,
2003-07-21,-3.72, 0.72, -4.91, 2.36, 1.73, 7.75, repro,
2003-07-22,-2.77, 3.20, 2.05, 2.32, 1.68, 7.61, repro,
2003-07-23,-2.45, 1.34, -1.59, 2.26, 1.64, 7.33, repro,
2003-07-24,-1.88, 1.91, 8.62, 2.27, 1.65, 7.36, repro,
2003-07-25,-3.43, 2.58, 0.61, 2.35, 1.68, 7.51, repro,
2003-07-26,-3.85, 2.82, -4.25, 2.50, 1.76, 7.94, repro,
2003-07-27,-3.54, 2.53, -5.61, 2.40, 1.73, 7.83, repro,
2003-07-28,-1.51, 1.72, -4.67, 2.34, 1.69, 7.54, repro,
2003-07-29,-3.86, 1.03, -1.62, 2.39, 1.76, 7.73, repro,
2003-07-30,-1.43, 3.17, 2.22, 2.31, 1.69, 7.49, repro,
2003-07-31,-2.13, 1.78, -7.45, 2.32, 1.69, 7.48, repro,
2003-08-01,-2.40, 3.84, -8.35, 2.43, 1.76, 7.84, repro,
2003-08-02,-0.97, 2.94, -7.40, 2.36, 1.68, 7.52, repro,
2003-08-03,-1.12, 1.08, -2.12, 2.30, 1.68, 7.44, repro,
2003-08-04,-0.42, 1.44, -9.31, 2.35, 1.70, 7.58, repro,
2003-08-05,-2.39, 2.93, -2.14, 2.34, 1.68, 7.49, repro,
2003-08-06,2.51, 2.50, -15.67, 2.53, 1.85, 8.48, repro,
2003-08-07,0.09, 2.33, -7.54, 2.34, 1.71, 7.61, repro,
2003-08-08,-1.39, 2.42, -13.63, 2.29, 1.67, 7.42, repro,
2003-08-09,-1.94, 1.04, -9.03, 2.23, 1.63, 7.26, repro,
2003-08-10,-1.06, 1.99, -4.59, 2.28, 1.68, 7.52, repro,
2003-08-11,-1.63, 2.02, -6.26, 2.25, 1.64, 7.32, repro,
2003-08-12,-3.20, 2.33, -7.62, 2.31, 1.68, 7.54, repro,
2003-08-13,-1.57, 2.90, -7.91, 2.27, 1.66, 7.40, repro,
2003-08-14,-1.61, 2.66, -12.93, 2.35, 1.71, 7.59, repro,
2003-08-15,-3.26, 2.35, -6.48, 2.36, 1.71, 7.74, repro,
2003-08-16,-0.74, -0.66, -11.60, 2.29, 1.67, 7.49, repro,
2003-08-17,-2.65, 1.60, -0.67, 2.25, 1.64, 7.25, repro,
2003-08-18,-2.99, 2.85, 1.60, 3.21, 2.23, 10.32, repro,
2003-08-19,-0.59, 2.61, -6.51, 2.35, 1.71, 7.56, repro,
2003-08-20,-1.36, 1.16, -1.26, 2.38, 1.79, 7.99, repro,
2003-08-21,-2.46, 3.27, -1.71, 2.52, 1.89, 8.42, repro,
2003-08-22,-3.41, 6.66, -6.42, 2.32, 1.70, 7.69, repro,
2003-08-23,0.18, 1.83, -8.43, 2.26, 1.67, 7.44, repro,
2003-08-24,-0.37, 3.06, -5.26, 2.31, 1.69, 7.63, repro,
2003-08-25,0.22, 1.51, -6.22, 2.32, 1.70, 7.71, repro,
2003-08-26,-1.89, 1.99, -4.33, 2.32, 1.69, 7.63, repro,
2003-08-27,0.91, 0.83, -5.31, 2.28, 1.66, 7.47, repro,
2003-08-28,-0.72, 4.23, -13.13, 2.35, 1.71, 7.66, repro,
2003-08-29,-1.80, 2.22, 0.69, 2.28, 1.68, 7.53, repro,
2003-08-30,-2.55, 2.85, -12.96, 2.27, 1.63, 7.30, repro,
2003-08-31,-1.15, 0.97, -11.79, 2.23, 1.63, 7.25, repro,
2003-09-01,-2.79, 0.06, -11.20, 2.32, 1.67, 7.41, repro,
2003-09-02,-3.60, 2.77, -6.72, 2.27, 1.64, 7.32, repro,
2003-09-03,-1.83, 0.59, -1.25, 2.29, 1.65, 7.42, repro,
2003-09-04,-0.08, -0.06, -4.58, 2.29, 1.65, 7.38, repro,
2003-09-05,-1.35, 1.55, -4.34, 2.24, 1.63, 7.32, repro,
2003-09-06,-2.04, 0.71, -5.65, 2.25, 1.63, 7.24, repro,
2003-09-07,-1.96, 2.13, -3.83, 2.25, 1.63, 7.23, repro,
2003-09-08,-0.43, 2.94, -4.85, 2.27, 1.64, 7.32, repro,
2003-09-09,-2.66, 2.30, -8.40, 2.30, 1.65, 7.45, repro,
2003-09-10,-1.64, 0.91, 0.84, 2.30, 1.65, 7.43, repro,
2003-09-11,-5.86, 3.84, 1.65, 2.26, 1.63, 7.28, repro,
2003-09-12,-7.30, 1.24, 6.63, 2.30, 1.64, 7.33, repro,
2003-09-13,-1.66, 3.14, 4.54, 2.27, 1.64, 7.30, repro,
2003-09-15,0.01, 0.82, -7.83, 2.47, 1.75, 7.98, repro,
2003-09-16,-3.77, 2.23, 0.13, 2.36, 1.66, 7.58, repro,
2003-09-17,-2.51, 2.64, -13.90, 2.33, 1.66, 7.51, repro,
2003-09-18,-4.24, 2.38, 0.43, 2.35, 1.68, 7.50, repro,
2003-09-19,-6.60, 1.92, -13.22, 2.37, 1.66, 7.58, repro,
2003-09-20,-2.06, 0.66, -10.58, 2.33, 1.65, 7.53, repro,
2003-09-21,-1.57, 2.25, -10.74, 2.38, 1.66, 7.63, repro,
2003-09-22,-2.04, 3.42, -4.96, 2.41, 1.69, 7.66, repro,
2003-09-23,-0.96, 0.78, -6.67, 2.40, 1.73, 7.82, repro,
2003-09-24,-1.03, 1.30, -6.08, 2.45, 1.76, 7.97, repro,
2003-09-25,-0.72, 0.19, -6.00, 2.40, 1.71, 7.73, repro,
2003-09-26,-2.67, 1.62, -4.60, 2.45, 1.72, 7.84, repro,
2003-09-27,0.20, 1.22, -7.08, 2.44, 1.71, 7.82, repro,
2003-09-28,1.23, 0.08, -4.85, 2.32, 1.69, 7.50, repro,
2003-09-29,-2.22, 0.61, -13.07, 2.45, 1.71, 7.75, repro,
2003-09-30,-1.82, 1.03, -4.95, 2.44, 1.70, 7.74, repro,
2003-10-01,-2.40, 0.34, -15.17, 2.52, 1.74, 7.98, repro,
2003-10-02,-3.21, 1.31, -14.28, 2.47, 1.71, 7.87, repro,
2003-10-03,-1.36, 3.22, -3.70, 2.38, 1.70, 7.69, repro,
2003-10-04,-1.31, 1.06, 1.74, 2.39, 1.69, 7.67, repro,
2003-10-05,-0.92, 0.35, -10.41, 2.36, 1.69, 7.61, repro,
2003-10-06,-3.47, 0.96, -13.35, 2.42, 1.73, 7.79, repro,
2003-10-07,-1.22, 2.80, 2.69, 2.49, 1.80, 8.14, repro,
2003-10-08,-1.85, 1.74, -9.60, 2.52, 1.75, 8.07, repro,
2003-10-09,-2.44, 1.48, -5.10, 2.44, 1.71, 7.78, repro,
2003-10-10,-3.77, 1.60, 0.82, 2.44, 1.71, 7.80, repro,
2003-10-11,-0.36, 1.15, -3.44, 2.37, 1.71, 7.67, repro,
2003-10-12,-2.84, 0.28, -2.61, 2.46, 1.77, 8.08, repro,
2003-10-13,-1.81, 1.97, -4.12, 2.41, 1.71, 7.72, repro,
2003-10-14,-0.08, 1.84, -5.89, 2.51, 1.76, 8.18, repro,
2003-10-16,-2.43, 1.35, -3.98, 2.39, 1.69, 7.71, repro,
2003-10-17,-1.98, 2.21, -8.62, 2.31, 1.65, 7.49, repro,
2003-10-18,-2.15, 2.48, -9.26, 2.29, 1.64, 7.46, repro,
2003-10-19,-2.23, 3.02, -3.30, 2.31, 1.64, 7.41, repro,
2003-10-21,-1.49, 0.33, -4.95, 2.29, 1.65, 7.37, repro,
2003-10-22,-1.13, 2.10, -5.76, 2.43, 1.79, 7.85, repro,
2003-10-23,-2.24, 1.26, -5.49, 2.30, 1.65, 7.45, repro,
2003-10-24,-1.37, 2.19, -2.75, 2.40, 1.70, 7.76, repro,
2003-10-25,-1.67, 2.83, -2.16, 2.28, 1.63, 7.30, repro,
2003-10-26,-2.07, 1.74, -5.96, 2.28, 1.64, 7.36, repro,
2003-10-27,-0.37, 1.92, -3.40, 2.41, 1.76, 8.06, repro,
2003-10-28,-3.33, 2.36, 3.74, 2.29, 1.63, 7.35, repro,
2003-10-29,-1.42, 3.00, 10.41, 3.24, 2.37, 9.90, repro,
2003-10-30,0.72, 3.66, -2.73, 3.51, 2.58, 11.30, repro,
2003-10-31,-2.16, 1.05, -8.12, 2.72, 2.00, 9.20, repro,
2003-11-02,-1.01, 1.70, -11.29, 2.27, 1.64, 7.39, repro,
2003-11-03,0.35, 1.46, -16.33, 2.35, 1.69, 7.61, repro,
2003-11-04,-0.47, 1.17, -14.46, 2.36, 1.69, 7.65, repro,
2003-11-05,-0.20, 0.86, -11.90, 2.27, 1.64, 7.35, repro,
2003-11-06,-1.12, 2.12, -3.06, 2.30, 1.64, 7.45, repro,
2003-11-07,-1.89, 1.72, -3.36, 2.31, 1.64, 7.42, repro,
2003-11-08,-1.19, 0.97, -25.01, 2.29, 1.63, 7.35, repro,
2003-11-09,-1.76, 4.64, -14.40, 2.31, 1.64, 7.42, repro,
2003-11-10,-1.40, 3.25, -5.20, 2.37, 1.69, 7.76, repro,
2003-11-11,-3.36, 1.94, 5.42, 2.51, 1.78, 8.36, repro,
2003-11-12,-1.51, 0.33, 3.28, 2.30, 1.64, 7.36, repro,
2003-11-13,-0.71, 1.05, 0.25, 2.51, 1.81, 8.21, repro,
2003-11-14,0.15, 2.61, -0.55, 2.44, 1.75, 8.06, repro,
2003-11-15,-2.12, 2.92, -3.34, 2.34, 1.68, 7.58, repro,
2003-11-16,-0.57, 3.62, -3.66, 2.34, 1.67, 7.54, repro,
2003-11-17,-2.30, 3.58, -3.20, 2.44, 1.74, 7.86, repro,
2003-11-18,-1.70, 2.36, 0.15, 2.50, 1.79, 8.02, repro,
2003-11-19,-2.78, 4.13, 4.08, 2.37, 1.67, 7.59, repro,
2003-11-20,-1.51, 2.56, 4.60, 3.62, 2.51, 11.26, repro,
2003-11-21,-1.23, 2.94, -2.76, 2.58, 1.90, 8.60, repro,
2003-11-22,-0.40, 1.55, -9.33, 2.54, 1.83, 8.28, repro,
2003-11-23,-0.31, 0.53, -4.36, 2.49, 1.78, 8.03, repro,
2003-11-25,-2.62, 2.93, 8.01, 2.58, 1.89, 8.51, repro,
2003-11-26,-1.60, 1.96, 0.71, 2.25, 1.62, 7.36, repro,
2003-11-27,-0.94, 2.05, -14.29, 2.34, 1.68, 7.56, repro,
2003-11-28,-0.04, 1.32, -12.09, 2.29, 1.66, 7.44, repro,
2003-11-29,-0.07, 1.17, -1.02, 2.36, 1.68, 7.60, repro,
2003-11-30,-0.04, 0.75, 4.32, 2.31, 1.65, 7.45, repro,
2003-12-01,-0.44, -0.31, -15.37, 2.27, 1.64, 7.33, repro,
2003-12-02,0.44, 2.02, -17.73, 2.36, 1.74, 7.89, repro,
2003-12-03,-0.59, 0.91, -14.29, 2.45, 1.80, 8.03, repro,
2003-12-04,-0.30, 1.96, -14.28, 2.44, 1.73, 7.74, repro,
2003-12-05,1.22, 1.17, -13.45, 2.43, 1.73, 7.82, repro,
2003-12-06,-2.38, 2.05, -11.57, 2.27, 1.63, 7.31, repro,
2003-12-07,-0.36, 2.44, -9.54, 2.27, 1.65, 7.39, repro,
2003-12-08,1.29, 2.75, -8.74, 2.35, 1.70, 7.61, repro,
2003-12-09,-5.79, 1.36, 11.68, 2.40, 1.72, 7.84, repro,
2003-12-10,0.56, 0.74, 0.71, 2.36, 1.68, 7.60, repro,
2003-12-11,-0.50, 1.66, 11.10, 2.50, 1.82, 8.17, repro,
2003-12-12,-0.35, 1.78, -1.26, 2.62, 1.84, 8.21, repro,
2003-12-13,-1.48, 4.27, -1.17, 2.35, 1.71, 7.64, repro,
2003-12-15,2.22, 3.05, -5.50, 2.34, 1.69, 7.62, repro,
2003-12-17,0.43, 1.11, 4.14, 2.52, 1.89, 8.25, repro,
2003-12-18,1.43, 0.94, -4.14, 2.49, 1.77, 7.78, repro,
2003-12-19,2.60, 0.60, -5.60, 2.48, 1.76, 7.77, repro,
2003-12-20,-1.36, 1.73, -4.53, 2.56, 1.77, 7.98, repro,
2003-12-21,-3.55, 3.22, 1.61, 2.64, 1.77, 8.00, repro,
2003-12-22,-1.73, 2.55, 1.93, 2.35, 1.70, 7.51, repro,
2003-12-23,-1.48, 2.46, 4.03, 2.40, 1.76, 7.69, repro,
2003-12-24,0.92, 2.04, -3.17, 2.49, 1.81, 8.12, repro,
2003-12-25,-2.60, 2.46, -6.75, 2.49, 1.80, 8.05, repro,
2003-12-26,-2.19, 4.94, -0.98, 2.33, 1.68, 7.53, repro,
2003-12-27,-3.01, 4.26, 1.45, 2.39, 1.73, 7.76, repro,
2003-12-28,-1.21, 2.53, -0.37, 2.34, 1.70, 7.58, repro,
2003-12-29,-1.91, 2.45, -3.86, 2.31, 1.67, 7.49, repro,
2003-12-30,-1.59, 2.91, -2.86, 2.36, 1.67, 7.56, repro,
2003-12-31,-0.92, 1.82, -7.73, 2.33, 1.65, 7.50, repro,
2004-01-01,0.22, 3.15, -8.60, 2.37, 1.71, 7.71, repro,
2004-01-02,0.21, 2.97, 0.28, 2.38, 1.72, 7.77, repro,
2004-01-03,-1.80, 2.18, 6.81, 2.36, 1.72, 7.87, repro,
2004-01-04,0.72, 1.95, -7.22, 2.42, 1.77, 8.07, repro,
2004-01-05,0.91, 2.23, -10.67, 2.39, 1.72, 8.00, repro,
2004-01-06,0.02, 3.15, -7.37, 2.45, 1.75, 8.06, repro,
2004-01-07,-0.61, 3.68, -8.77, 2.40, 1.73, 7.98, repro,
2004-01-08,0.14, 2.79, -8.35, 2.48, 1.81, 8.38, repro,
2004-01-09,2.66, 1.63, -18.27, 2.41, 1.76, 8.06, repro,
2004-01-10,-1.01, 2.06, -17.43, 2.39, 1.69, 7.76, repro,
2004-01-11,-0.88, 0.38, -6.35, 2.39, 1.72, 7.78, repro,
2004-01-12,0.68, 0.43, -1.25, 2.35, 1.68, 7.59, repro,
2004-01-13,-0.26, 2.05, -10.77, 2.44, 1.76, 8.10, repro,
2004-01-14,0.67, 2.11, -11.45, 2.40, 1.74, 7.95, repro,
2004-01-15,-0.36, 2.50, -11.62, 2.41, 1.75, 7.77, repro,
2004-01-16,1.61, 3.21, -18.18, 2.43, 1.76, 8.07, repro,
2004-01-17,1.11, 2.82, -10.94, 2.37, 1.71, 7.66, repro,
2004-01-18,1.51, 0.93, -3.36, 2.38, 1.70, 7.65, repro,
2004-01-19,-1.56, 2.09, -14.11, 2.36, 1.72, 7.72, repro,
2004-01-20,0.12, 3.51, -16.14, 2.42, 1.77, 8.20, repro,
2004-01-21,-0.61, 2.32, -9.90, 2.41, 1.74, 7.75, repro,
2004-01-22,-2.51, 0.37, -7.24, 2.57, 1.86, 8.50, repro,
2004-01-23,-1.34, 1.74, -7.30, 2.43, 1.75, 7.91, repro,
2004-01-24,-0.97, 1.81, -8.07, 2.49, 1.83, 8.16, repro,
2004-01-25,2.53, 1.43, -13.78, 2.57, 1.91, 8.82, repro,
2004-01-26,1.81, 1.84, -18.84, 2.38, 1.77, 7.94, repro,
2004-01-27,-0.65, 3.15, -8.86, 2.56, 1.90, 8.33, repro,
2004-01-28,-0.31, 2.29, -10.34, 2.43, 1.77, 7.92, repro,
2004-01-29,2.39, 0.95, -9.77, 2.31, 1.69, 7.65, repro,
2004-01-30,-0.09, 1.35, -11.23, 2.33, 1.74, 7.82, repro,
2004-01-31,-0.94, 1.42, -8.99, 2.30, 1.69, 7.60, repro,
2004-02-01,0.54, 3.17, -18.43, 2.33, 1.72, 7.60, repro,
2004-02-02,-0.71, 1.54, -11.65, 2.31, 1.68, 7.51, repro,
2004-02-03,-1.09, -0.23, -5.78, 2.38, 1.69, 7.58, repro,
2004-02-04,-0.08, -0.17, -11.64, 2.30, 1.66, 7.42, repro,
2004-02-05,0.34, -0.09, -22.09, 2.23, 1.64, 7.30, repro,
2004-02-06,0.43, -1.45, -16.88, 2.29, 1.68, 7.60, repro,
2004-02-07,2.01, -2.83, -17.68, 2.32, 1.71, 7.74, repro,
2004-02-08,0.83, -0.83, -6.35, 2.31, 1.66, 7.49, repro,
2004-02-09,1.16, -0.73, -8.65, 2.31, 1.65, 7.52, repro,
2004-02-10,2.37, -1.91, -16.97, 2.36, 1.67, 7.56, repro,
2004-02-12,-2.35, -0.40, -12.02, 3.03, 2.23, 9.82, repro,
2004-02-13,-0.05, -1.26, -3.38, 2.32, 1.68, 7.58, repro,
2004-02-14,1.45, -0.43, -10.69, 2.35, 1.69, 7.60, repro,
2004-02-15,0.04, -2.04, -15.22, 2.47, 1.75, 7.88, repro,
2004-02-16,1.27, -1.03, -25.02, 2.33, 1.69, 7.58, repro,
2004-02-17,1.48, -0.27, -14.88, 2.29, 1.69, 7.49, repro,
2004-02-18,0.56, 0.22, -14.17, 2.32, 1.69, 7.55, repro,
2004-02-19,0.51, -2.81, -9.38, 2.34, 1.68, 7.59, repro,
2004-02-20,0.59, -3.19, -10.36, 2.33, 1.68, 7.59, repro,
2004-02-21,0.63, -4.84, -7.42, 2.31, 1.65, 7.54, repro,
2004-02-22,0.62, -2.50, -13.80, 2.31, 1.66, 7.49, repro,
2004-02-24,3.35, -2.60, -19.79, 2.34, 1.66, 7.51, repro,
2004-02-25,0.23, -2.46, -13.90, 2.35, 1.65, 7.57, repro,
2004-02-26,-0.56, -2.16, -13.89, 2.40, 1.71, 7.79, repro,
2004-02-27,-0.50, -2.42, -13.36, 2.32, 1.65, 7.55, repro,
2004-02-28,0.41, -1.88, -14.44, 2.31, 1.66, 7.53, repro,
2004-02-29,-1.05, -3.53, -12.82, 2.32, 1.66, 7.54, repro,
2004-03-01,1.71, -4.19, -9.92, 2.34, 1.66, 7.62, repro,
2004-03-02,-0.27, -6.04, -13.28, 2.37, 1.72, 7.76, repro,
2004-03-03,-0.58, -5.84, -12.26, 2.40, 1.70, 7.66, repro,
2004-03-04,0.03, -4.86, 0.28, 2.38, 1.68, 7.58, repro,
2004-03-05,1.66, -5.03, -3.91, 2.39, 1.69, 7.63, repro,
2004-03-06,0.64, -5.98, -1.54, 2.42, 1.70, 7.76, repro,
2004-03-07,2.00, -7.37, -9.22, 2.32, 1.66, 7.58, repro,
2004-03-08,0.73, -7.28, -6.99, 2.35, 1.66, 7.62, repro,
2004-03-09,-1.78, -7.54, -8.87, 2.45, 1.74, 7.94, repro,
2004-03-10,0.18, -6.59, -8.44, 2.48, 1.76, 8.18, repro,
2004-03-11,1.38, -8.97, -4.28, 3.41, 2.39, 10.76, repro,
2004-03-12,0.12, -8.29, -5.04, 2.46, 1.74, 8.09, repro,
2004-03-13,2.01, -6.92, -23.14, 2.42, 1.72, 7.99, repro,
2004-03-14,-0.14, -10.36, -10.79, 2.45, 1.76, 8.12, repro,
2004-03-19,0.05, -11.43, -14.39, 2.68, 1.93, 8.82, repro,
2004-03-20,-1.88, -12.09, -17.94, 2.47, 1.81, 8.18, repro,
2004-03-21,-1.69, -13.42, -27.09, 2.40, 1.73, 7.83, repro,
2004-03-22,0.10, -12.56, -13.79, 2.42, 1.72, 7.90, repro,
2004-03-24,-2.91, -11.23, -2.38, 2.54, 1.82, 8.38, repro,
2004-03-25,-2.07, -13.32, -5.67, 2.51, 1.83, 8.27, repro,
2004-03-26,0.08, -13.74, -20.84, 2.50, 1.80, 8.32, repro,
2004-03-28,-2.95, -14.56, -11.22, 2.58, 1.89, 8.64, repro,
2004-04-12,-1.53, -5.25, -11.35, 2.25, 1.61, 7.42, repro,
2004-04-13,-2.18, -4.75, -8.01, 2.30, 1.66, 7.57, repro,
2004-04-14,-0.12, -5.47, -10.66, 2.33, 1.67, 7.69, repro,
2004-04-15,-1.92, -4.34, -12.39, 2.29, 1.64, 7.52, repro,
2004-04-16,-1.64, -5.28, -5.01, 2.27, 1.63, 7.48, repro,
2004-04-17,-0.62, -3.85, -11.66, 2.25, 1.62, 7.43, repro,
2004-04-18,-2.51, -2.40, -5.27, 2.28, 1.61, 7.50, repro,
2004-04-19,0.59, -5.93, -7.21, 2.29, 1.62, 7.58, repro,
2004-04-20,-1.68, -2.76, -4.89, 2.29, 1.63, 7.58, repro,
2004-04-21,-0.12, -3.66, -3.83, 2.27, 1.64, 7.53, repro,
2004-04-22,0.36, -3.47, -9.62, 2.27, 1.62, 7.50, repro,
2004-04-23,-1.85, -0.91, -18.05, 2.28, 1.63, 7.53, repro,
2004-04-24,-2.09, -1.00, -9.87, 2.28, 1.62, 7.55, repro,
2004-04-25,-1.84, -1.76, -6.49, 2.32, 1.65, 7.69, repro,
2004-04-26,-1.52, -3.57, -5.13, 2.28, 1.63, 7.54, repro,
2004-04-27,0.10, -2.28, -5.73, 2.27, 1.62, 7.50, repro,
2004-04-28,-0.32, 0.23, -0.22, 2.40, 1.70, 7.88, repro,
2004-04-29,0.33, -2.16, -3.07, 2.36, 1.66, 7.79, repro,
2004-04-30,-0.58, -0.54, -9.39, 2.38, 1.69, 7.83, repro,
2004-05-01,-1.21, -2.34, -7.87, 2.45, 1.76, 7.96, repro,
2004-05-02,-1.09, -1.49, -6.50, 2.46, 1.76, 7.93, repro,
2004-05-03,-0.97, -0.36, -8.29, 2.46, 1.71, 8.07, repro,
2004-05-04,-0.23, -1.44, 0.05, 2.45, 1.70, 8.05, repro,
2004-05-05,-1.52, -1.32, -7.69, 2.45, 1.70, 8.04, repro,
2004-05-06,-2.06, -1.16, -3.79, 2.34, 1.66, 7.77, repro,
2004-05-07,-1.24, -0.02, -9.34, 2.53, 1.78, 8.12, repro,
2004-05-08,-2.27, -0.15, -9.88, 2.54, 1.76, 8.09, repro,
2004-05-09,-0.12, -0.16, -2.22, 2.60, 1.80, 8.28, repro,
2004-05-10,0.22, -1.52, -1.53, 2.37, 1.65, 7.71, repro,
2004-05-11,-1.54, -0.17, -5.66, 2.45, 1.70, 7.96, repro,
2004-05-12,-1.83, -1.30, -9.10, 2.45, 1.73, 8.06, repro,
2004-05-13,-1.04, -2.93, -12.00, 2.45, 1.72, 7.94, repro,
2004-05-14,-0.33, -1.87, -13.08, 2.36, 1.66, 7.65, repro,
2004-05-15,0.36, -1.17, -10.00, 2.31, 1.64, 7.52, repro,
2004-05-16,-1.01, -0.51, -7.57, 2.32, 1.65, 7.57, repro,
2004-05-17,-0.74, -1.97, -8.55, 2.29, 1.64, 7.50, repro,
2004-05-18,-0.39, -1.75, -10.49, 2.26, 1.64, 7.42, repro,
2004-05-19,-2.86, -1.20, -12.04, 2.25, 1.65, 7.49, repro,
2004-05-20,0.34, -0.73, -6.97, 2.28, 1.66, 7.56, repro,
2004-05-21,-1.03, -0.88, -6.66, 2.33, 1.65, 7.51, repro,
2004-05-22,-1.11, -0.06, -2.91, 2.26, 1.63, 7.43, repro,
2004-05-23,-1.76, -0.93, -1.39, 2.24, 1.64, 7.38, repro,
2004-05-24,-1.97, 0.18, 0.58, 2.24, 1.63, 7.40, repro,
2004-05-25,-1.04, 1.22, -1.79, 2.31, 1.68, 7.59, repro,
2004-05-26,-1.45, 0.06, 6.05, 2.23, 1.62, 7.33, repro,
2004-05-27,-1.21, -0.51, 7.23, 2.28, 1.65, 7.47, repro,
2004-05-28,-1.29, -0.61, 2.60, 2.27, 1.65, 7.44, repro,
2004-05-29,-1.40, -0.24, -2.52, 2.21, 1.61, 7.23, repro,
2004-05-30,-0.92, -0.04, 0.35, 2.22, 1.62, 7.32, repro,
2004-05-31,-0.44, -0.48, 6.75, 2.25, 1.64, 7.45, repro,
2004-06-01,-0.52, -0.32, 11.00, 2.27, 1.63, 7.41, repro,
2004-06-02,-1.60, -0.88, -2.48, 2.25, 1.62, 7.34, repro,
2004-06-03,-1.78, -0.71, -5.73, 2.23, 1.62, 7.30, repro,
2004-06-04,-2.61, -0.44, -7.08, 2.22, 1.63, 7.31, repro,
2004-06-05,-1.80, -0.99, -2.23, 2.24, 1.62, 7.35, repro,
2004-06-06,-3.31, -1.13, -0.05, 2.25, 1.64, 7.35, repro,
2004-06-07,-2.98, -0.34, 1.15, 2.27, 1.63, 7.44, repro,
2004-06-08,-0.86, -0.22, -12.98, 2.34, 1.65, 7.47, repro,
2004-06-09,-1.79, -0.58, 1.51, 2.25, 1.63, 7.33, repro,
2004-06-10,-0.93, -1.17, -2.91, 2.25, 1.62, 7.35, repro,
2004-06-11,-0.43, 0.02, -1.32, 2.25, 1.62, 7.33, repro,
2004-06-12,-1.88, 0.38, -7.21, 2.29, 1.63, 7.45, repro,
2004-06-13,-2.07, -0.79, 3.12, 2.26, 1.62, 7.32, repro,
2004-06-14,-3.14, -1.59, 2.33, 2.29, 1.66, 7.43, repro,
2004-06-15,-2.95, -2.11, -5.19, 2.29, 1.66, 7.59, repro,
2004-06-16,-1.99, -1.06, -3.97, 2.29, 1.68, 7.63, repro,
2004-06-17,-1.61, 0.02, -4.38, 2.31, 1.65, 7.46, repro,
2004-06-18,-1.48, 0.14, 0.63, 2.30, 1.65, 7.57, repro,
2004-06-19,-3.85, 0.95, -5.48, 2.25, 1.61, 7.28, repro,
2004-06-20,-2.51, -0.17, -4.09, 2.27, 1.64, 7.44, repro,